This is the latest recevied weather packets stored in our database for station/object W0AKY-13. If no packets are shown the sender has not sent any weather packets the latest 10 day(s).
| Time | Temp. | Humidity | Pressure | Rain* | Wind** | Luminosity | Snow |
|---|---|---|---|---|---|---|---|
| 1777856938 | 19.44° C | 52% | 1010 hPa | 0 mm | - | 4 W/m² | - |
| 1777856634 | 20° C | 47% | 1010.2 hPa | 0 mm | - | 6 W/m² | - |
| 1777856331 | 20° C | 46% | 1010.3 hPa | 0 mm | - | 8 W/m² | - |
| 1777856027 | 20° C | 46% | 1010.4 hPa | 0 mm | - | 10 W/m² | - |
| 1777855725 | 20° C | 51% | 1010.2 hPa | 0 mm | - | 13 W/m² | - |
| 1777855423 | 20° C | 49% | 1010.4 hPa | 0 mm | - | 15 W/m² | - |
| 1777855119 | 20.56° C | 53% | 1010.6 hPa | 0 mm | - | 18 W/m² | - |
| 1777854816 | 21.11° C | 43% | 1010.6 hPa | 0 mm | - | 19 W/m² | - |
| 1777854513 | 21.67° C | 47% | 1010.5 hPa | 0 mm | - | 22 W/m² | - |
| 1777854209 | 22.22° C | 39% | 1010.6 hPa | 0 mm | - | 26 W/m² | - |
| 1777853907 | 22.22° C | 37% | 1010.5 hPa | 0 mm | - | 29 W/m² | - |
| 1777853604 | 22.22° C | 34% | 1010.6 hPa | 0 mm | - | 31 W/m² | - |
| 1777853301 | 22.78° C | 34% | 1010.6 hPa | 0 mm | - | 42 W/m² | - |
| 1777852998 | 22.78° C | 38% | 1010.6 hPa | 0 mm | - | 45 W/m² | - |
| 1777852696 | 22.78° C | 37% | 1010.7 hPa | 0 mm | - | 44 W/m² | - |
| 1777852393 | 22.78° C | 38% | 1010.8 hPa | 0 mm | - | 48 W/m² | - |
| 1777852090 | 22.78° C | 34% | 1010.6 hPa | 0 mm | - | 55 W/m² | - |
| 1777851788 | 22.78° C | 34% | 1010.8 hPa | 0 mm | - | 51 W/m² | - |
| 1777851486 | 22.78° C | 41% | 1010.8 hPa | 0 mm | - | 45 W/m² | - |
| 1777851181 | 22.78° C | 31% | 1010.9 hPa | 0 mm | - | 47 W/m² | - |
| 1777850878 | 23.33° C | 36% | 1011.1 hPa | 0 mm | - | 49 W/m² | - |
| 1777850576 | 23.33° C | 32% | 1010.9 hPa | 0 mm | - | 55 W/m² | - |
| 1777850274 | 23.33° C | 33% | 1010.9 hPa | 0 mm | - | 69 W/m² | - |
| 1777849970 | 23.33° C | 34% | 1011 hPa | 0 mm | - | 70 W/m² | - |
| 1777849666 | 23.89° C | 34% | 1010.9 hPa | 0 mm | - | 89 W/m² | - |
* Rain latest hour (hover to see other rain measurements)
** Current wind speed in m/s (hover to see current wind gust speed)